Карточка аэропорта USRR

Внимание!
Информация на этой странице в стадии наполнения.
Если вы не увидели какой-то информации, или заметили неточность - пожалуйста сообщите нам!
Спасибо!
Команда RU-STAFF
Название аэропортаСургут
Название аэропорта (англ.)Surgut
Превышение196 ft. (59.7 m.)
Координаты61°20.502', 73°24.168'
Высота перехода700m
Эшелон переходаQFE>=742mm:FL040; QFE<=742mm:FL050
Коды ответчика5570-5577
Зона ОрВДТюмень РПИ (USTV)
Данные METARUSRR 280430Z 26006MPS 9999 FEW017CB M03/M06 Q1019 R25/450239 NOSIG RMK QFE758
Проноз погоды (TAF)USRR 280145Z 2803/2903 27005G12MPS 3100 -SHSN FEW011 BKN020CB TEMPO 2803/2812 0500 +SHSN VV004 BECMG 2812/2814 6000 -SHSN
NOTAMshow/hide NOTAM
AWOS   TABLE

Информация о ВПП

ВПП Длина ВПП (м.) Покрытие Курс ВПП Частота ILS
072780Асфальтобетон73110.5
252780Асфальтобетон253109.1

Диспетчерские позиции

Позывной Наименование органа УВД Частота
USRR_TWRСургут-Вышка120.800
USRR_APPСургут-Подход129.300
USRR_R_APPСургут - Круг120.300



Спутниковое изображение